Location: East Irvine
(33.6759°N, 117.7598°W)
Time: 02:01:21
(UTC+00:00)

Aureole 3 Rocket - Visible Passes

Search period start: 16 February 2026 00:00
Search period end: 26 February 2026 00:00
Orbit: 397 x 1689 km, 82.5° (Epoch: 15 February)

Date Brightness Start Highest point End Pass type
(mag) Time Alt. Az. Time Alt. Az. Time Alt. Az.
16 Feb 4.1 02:43:50 10° NNW 02:46:45 33° W 02:49:30 10° SSW visible
17 Feb 6.9 13:30:34 10° SE 13:37:28 26° E 13:43:07 10° NE visible
18 Feb 4.1 02:28:18 10° NNW 02:31:10 34° W 02:33:58 10° SSW visible
19 Feb 6.9 13:15:42 10° SE 13:22:10 25° E 13:27:29 10° NE visible
20 Feb 4.0 02:12:43 10° NNW 02:15:34 36° W 02:18:26 10° SSW visible
20 Feb 5.1 13:59:28 10° S 14:07:55 62° E 14:14:12 10° NNE visible
21 Feb 6.8 13:00:49 10° SE 13:06:51 23° E 13:11:47 10° NE visible
22 Feb 5.1 13:44:28 10° S 13:52:35 59° E 13:58:34 10° NNE visible
23 Feb 6.8 12:45:57 10° SE 12:51:28 21° E 12:56:02 10° NE visible
24 Feb 5.0 13:29:27 10° S 13:37:13 57° E 13:42:53 10° NNE visible
25 Feb 6.8 12:31:04 10° SE 12:36:04 20° E 12:40:12 10° NE visible
